Location: Chemnitz
(49.5500°N, 11.5830°E)
Time: 22:52:45
(UTC+01:00)

ISS - Pass Details

Date: 13 November 2017
Orbit: 402 x 407 km, 51.6° (Epoch: 23 November)

Event Time Altitude Azimuth Distance (km) Brightness Sun altitude
Exits shadow 05:02:22 50° 92° (E) 524 -3.0 -22.5°
Drops below altitude 10° 05:04:53 10° 103° (ESE) 1,455 0.1 -22.1°
Sets 05:06:57 0° 104° (ESE) 2,313 1.4 -21.8°
